Flag for Canada Weather past 2 weeks in Calgary, Alberta, Canada

Now
66 °F

Passing clouds.


Feels Like: 66 °F
Forecast: 56 / 70 °F
Wind: 9 mph from South

Location: Calgary International

Current Time: Sep 23, 2014 at 5:29:34 PM

Latest Report: Sep 23, 2014 at 5:00 PM


Visibility: 20 mi

Pressure: 29.90 "Hg

Humidity: 60%

Dew point: 52 °F

Location of CalgaryLocation

Historic Weather in Calgary — Graph

°F

Calgary temperature yesterday

Maximum temperature yesterday: 82 °F (at 3:00 PM)
Minimum temperature yesterday: 50 °F (at 6:00 AM)
Average temperature yesterday: 66 °F

Past Weeks' High & Low Weather Summary

 TemperatureHumidityPressure
High82 °F (Sep 22, 3:00 PM)100% (Sep 8, 5:00 PM)30.71 "Hg (Sep 8, 5:00 PM)
Low28 °F (Sep 11, 7:00 AM)16% (Sep 22, 3:00 PM)29.57 "Hg (Sep 18, 2:00 PM)
Average51 °F64%30.10 "Hg
* Reported Sep 8 4:00 PM — Sep 23 4:00 PM, Calgary, Weather by CustomWeather, © 2014

Note: Actual official high and low records may vary slightly from our data, if they occured in-between our weather recording intervals... More about our weather records

Advertising

Calgary weather history for previous 24 hours

 ConditionsComfort  
Time TempWeatherWind HumidityBarometerVisibility
4:00 PM
Sep 23
66 °FPassing clouds.6 mph60%29.90 "Hg15 mi
3:00 PM64 °FPassing clouds.5 mph60%29.93 "Hg20 mi
2:00 PM63 °FScattered clouds.3 mph64%29.97 "Hg20 mi
1:00 PM59 °FPartly sunny.5 mph72%29.98 "Hg20 mi
12:00 PM57 °FPartly sunny.5 mph77%30.01 "Hg20 mi
11:45 AM57 °FMore clouds than sun.2 mph77%30.01 "Hg15 mi
11:00 AM57 °FSprinkles. Mostly cloudy.2 mph77%30.01 "Hg10 mi
10:00 AM57 °FSprinkles. Mostly cloudy.7 mph72%29.98 "Hg15 mi
9:00 AM57 °FBroken clouds.9 mph67%29.95 "Hg15 mi
8:00 AM57 °FMostly cloudy.12 mph67%29.94 "Hg15 mi
7:00 AM59 °FPassing clouds.2 mph59%29.93 "Hg15 mi
6:00 AM59 °FPassing clouds.5 mph59%29.89 "Hg15 mi
5:00 AM57 °FPassing clouds.7 mph63%29.87 "Hg15 mi
4:00 AM59 °FPartly cloudy.8 mph59%29.85 "Hg15 mi
3:00 AM59 °FPassing clouds.6 mph59%29.82 "Hg15 mi
2:00 AM57 °FPassing clouds.2 mph63%29.82 "Hg15 mi
1:00 AM59 °FPartly cloudy.2 mph55%29.80 "Hg15 mi
12:00 AM61 °FPassing clouds.5 mph52%29.81 "Hg15 mi
11:00 PM
Sep 22
63 °FPassing clouds.3 mph49%29.80 "Hg15 mi
10:00 PM66 °FPassing clouds.5 mph43%29.82 "Hg15 mi
9:00 PM68 °FPassing clouds.2 mph40%29.83 "Hg10 mi
8:00 PM72 °FPartly sunny.3 mph31%29.83 "Hg15 mi
7:00 PM73 °FPartly sunny.8 mph29%29.82 "Hg15 mi
6:00 PM79 °FBroken clouds.6 mph24%29.81 "Hg15 mi
5:00 PM81 °FBroken clouds.5 mph24%29.80 "Hg15 mi
Weather by CustomWeather, © 2014

See weather overviewHow to use our weather pages